02-09-2022, 00:00:08,     44,    0.0,   14.6,   0.00,   0.00, 1013.9,   75.3, -999.0
02-09-2022, 00:00:18,     44,    0.0,   14.6,   0.00,   0.00, 1013.9,   75.3, -999.0
02-09-2022, 00:00:28,     44,    0.0,   14.6,   0.00,   0.00, 1013.9,   75.3, -999.0
02-09-2022, 00:00:38,     45,    0.0,   14.5,   0.00,   0.00, 1013.9,   75.5, -999.0
02-09-2022, 00:00:48,     44,    0.0,   14.6,   0.00,   0.00, 1013.9,   75.6, -999.0
02-09-2022, 00:00:58,     44,    0.0,   14.6,   0.00,   0.00, 1013.9,   75.5, -999.0
02-09-2022, 00:01:08,     44,    0.0,   14.5,   0.00,   0.00, 1013.9,   75.6, -999.0
02-09-2022, 00:01:18,     44,    0.0,   14.5,   0.00,   0.00, 1013.9,   75.7, -999.0
02-09-2022, 00:01:28,     44,    0.0,   14.5,   0.00,   0.00, 1013.9,   75.6, -999.0
02-09-2022, 00:01:38,     44,    0.0,   14.5,   0.00,   0.00, 1013.9,   75.7, -999.0
02-09-2022, 00:01:48,     44,    0.0,   14.5,   0.00,   0.00, 1013.9,   75.8, -999.0
02-09-2022, 00:01:57,     44,    0.0,   14.5,   0.00,   0.00, 1013.9,   75.9, -999.0
02-09-2022, 00:02:08,     44,    0.0,   14.5,   0.00,   0.00, 1013.9,   75.8, -999.0
02-09-2022, 00:02:18,     44,    0.0,   14.5,   0.00,   0.00, 1013.9,   75.9, -999.0
02-09-2022, 00:02:28,     44,    0.0,   14.5,   0.00,   0.00, 1013.9,   75.9, -999.0
02-09-2022, 00:02:37,     44,    0.0,   14.5,   0.00,   0.00, 1013.9,   75.9, -999.0
02-09-2022, 00:02:47,     44,    0.0,   14.5,   0.00,   0.00, 1013.9,   76.0, -999.0
02-09-2022, 00:02:57,     45,    0.0,   14.5,   0.00,   0.00, 1013.9,   76.1, -999.0
02-09-2022, 00:03:07,     44,    0.0,   14.5,   0.00,   0.00, 1013.9,   76.0, -999.0
02-09-2022, 00:03:17,     44,    0.0,   14.5,   0.00,   0.00, 1013.9,   76.0, -999.0
02-09-2022, 00:03:27,     44,    0.0,   14.5,   0.00,   0.00, 1013.8,   76.1, -999.0
02-09-2022, 00:03:37,     44,    0.0,   14.5,   0.00,   0.00, 1013.9,   76.1, -999.0
02-09-2022, 00:03:47,     44,    0.0,   14.5,   0.00,   0.00, 1013.9,   76.0, -999.0
02-09-2022, 00:03:57,     44,    0.0,   14.5,   0.00,   0.00, 1013.9,   76.1, -999.0
02-09-2022, 00:04:07,     44,    0.0,   14.5,   0.00,   0.00, 1013.9,   76.1, -999.0
02-09-2022, 00:04:17,     45,    0.0,   14.5,   0.00,   0.00, 1013.9,   76.1, -999.0
02-09-2022, 00:04:27,     44,    0.0,   14.5,   0.00,   0.00, 1013.9,   76.1, -999.0
02-09-2022, 00:04:36,     44,    0.0,   14.6,   0.00,   0.00, 1013.9,   76.1, -999.0
02-09-2022, 00:04:47,     44,    0.0,   14.5,   0.00,   0.00, 1013.9,   76.0, -999.0
02-09-2022, 00:04:57,     44,    0.0,   14.5,   0.00,   0.00, 1013.9,   76.0, -999.0
02-09-2022, 00:05:06,     44,    0.0,   14.5,   0.00,   0.00, 1013.8,   76.1, -999.0
02-09-2022, 00:05:17,     44,    0.0,   14.5,   0.00,   0.00, 1013.8,   76.0, -999.0
02-09-2022, 00:05:27,     45,    0.0,   14.5,   0.00,   0.00, 1013.9,   76.0, -999.0
02-09-2022, 00:05:36,     44,    0.0,   14.5,   0.00,   0.00, 1013.9,   76.1, -999.0
02-09-2022, 00:05:46,     44,    0.0,   14.5,   0.00,   0.00, 1013.9,   76.1, -999.0
02-09-2022, 00:05:56,     44,    0.0,   14.4,   0.00,   0.00, 1013.9,   76.1, -999.0
02-09-2022, 00:06:06,     44,    0.0,   14.4,   0.00,   0.00, 1013.9,   76.0, -999.0
02-09-2022, 00:06:16,     44,    0.0,   14.4,   0.00,   0.00, 1013.9,   76.1, -999.0
02-09-2022, 00:06:26,     44,    0.0,   14.5,   0.00,   0.00, 1013.9,   76.2, -999.0
02-09-2022, 00:06:36,     45,    0.0,   14.5,   0.00,   0.00, 1013.9,   76.2, -999.0
02-09-2022, 00:06:46,     44,    0.0,   14.4,   0.00,   0.00, 1013.8,   76.2, -999.0
02-09-2022, 00:06:56,     44,    0.0,   14.5,   0.00,   0.00, 1013.9,   76.3, -999.0
02-09-2022, 00:07:06,     44,    0.0,   14.5,   0.00,   0.00, 1013.9,   76.4, -999.0
02-09-2022, 00:07:16,     44,    0.0,   14.4,   0.00,   0.00, 1013.9,   76.4, -999.0
02-09-2022, 00:07:26,     44,    0.0,   14.4,   0.00,   0.00, 1013.9,   76.4, -999.0
02-09-2022, 00:07:36,     44,    0.0,   14.5,   0.00,   0.00, 1013.9,   76.4, -999.0
02-09-2022, 00:07:46,     44,    0.0,   14.4,   0.00,   0.00, 1013.9,   76.5, -999.0
02-09-2022, 00:07:56,     44,    0.0,   14.5,   0.00,   0.00, 1013.9,   76.4, -999.0
02-09-2022, 00:08:06,     44,    0.0,   14.4,   0.00,   0.00, 1013.9,   76.4, -999.0
02-09-2022, 00:08:15,     44,    0.0,   14.3,   0.00,   0.00, 1013.8,   76.4, -999.0
02-09-2022, 00:08:26,     46,    0.0,   14.4,   0.00,   0.00, 1013.8,   76.5, -999.0
02-09-2022, 00:08:35,     44,    0.0,   14.4,   0.00,   0.00, 1013.8,   76.6, -999.0
02-09-2022, 00:08:45,     44,    0.0,   14.4,   0.00,   0.00, 1013.8,   76.6, -999.0
02-09-2022, 00:08:55,     44,    0.0,   14.4,   0.00,   0.00, 1013.8,   76.5, -999.0
02-09-2022, 00:09:05,     44,    0.0,   14.3,   0.00,   0.00, 1013.8,   76.6, -999.0
02-09-2022, 00:09:15,     44,    0.0,   14.5,   0.00,   0.00, 1013.8,   76.5, -999.0
02-09-2022, 00:09:25,     44,    0.0,   14.4,   0.00,   0.00, 1013.8,   76.7, -999.0
02-09-2022, 00:09:35,     44,    0.0,   14.4,   0.00,   0.00, 1013.8,   76.7, -999.0
02-09-2022, 00:09:45,     44,    0.0,   14.4,   0.00,   0.00, 1013.8,   76.8, -999.0
02-09-2022, 00:09:55,     44,    0.0,   14.4,   0.00,   0.00, 1013.8,   76.8, -999.0
02-09-2022, 00:10:05,     44,    0.0,   14.4,   0.00,   0.00, 1013.8,   76.8, -999.0
02-09-2022, 00:10:15,     44,    0.0,   14.3,   0.00,   0.00, 1013.8,   76.8, -999.0
02-09-2022, 00:10:25,     44,    0.0,   14.4,   0.00,   0.00, 1013.8,   76.8, -999.0
02-09-2022, 00:10:35,     44,    0.0,   14.4,   0.00,   0.00, 1013.8,   76.8, -999.0
02-09-2022, 00:10:45,     44,    0.0,   14.4,   0.00,   0.00, 1013.8,   76.9, -999.0
02-09-2022, 00:10:55,     44,    0.0,   14.4,   0.00,   0.00, 1013.7,   77.0, -999.0
02-09-2022, 00:11:05,     44,    0.0,   14.4,   0.00,   0.00, 1013.7,   76.8, -999.0
02-09-2022, 00:11:15,     44,    0.0,   14.4,   0.00,   0.00, 1013.7,   76.9, -999.0
02-09-2022, 00:11:24,     44,    0.0,   14.4,   0.00,   0.00, 1013.8,   76.9, -999.0
02-09-2022, 00:11:35,     44,    0.0,   14.4,   0.00,   0.00, 1013.8,   76.9, -999.0
02-09-2022, 00:11:44,     44,    0.0,   14.4,   0.00,   0.00, 1013.8,   77.0, -999.0
02-09-2022, 00:11:54,     44,    0.0,   14.3,   0.00,   0.00, 1013.8,   77.0, -999.0
02-09-2022, 00:12:04,     44,    0.0,   14.3,   0.00,   0.00, 1013.7,   76.9, -999.0
02-09-2022, 00:12:15,     44,    0.0,   14.3,   0.00,   0.00, 1013.8,   77.0, -999.0
02-09-2022, 00:12:24,     44,    0.0,   14.4,   0.00,   0.00, 1013.7,   77.0, -999.0
02-09-2022, 00:12:34,     44,    0.0,   14.4,   0.00,   0.00, 1013.7,   77.1, -999.0
02-09-2022, 00:12:44,     44,    0.0,   14.2,   0.00,   0.00, 1013.7,   77.1, -999.0
02-09-2022, 00:12:54,     45,    0.0,   14.3,   0.00,   0.00, 1013.7,   77.1, -999.0
02-09-2022, 00:13:04,     44,    0.0,   14.4,   0.00,   0.00, 1013.7,   77.2, -999.0
02-09-2022, 00:13:14,     44,    0.0,   14.4,   0.00,   0.00, 1013.7,   77.3, -999.0
02-09-2022, 00:13:24,     45,    0.0,   14.4,   0.00,   0.00, 1013.7,   77.2, -999.0
02-09-2022, 00:13:34,     44,    0.0,   14.4,   0.00,   0.00, 1013.7,   77.2, -999.0
02-09-2022, 00:13:44,     45,    0.0,   14.4,   0.00,   0.00, 1013.7,   77.3, -999.0
02-09-2022, 00:13:53,     45,    0.0,   14.4,   0.00,   0.00, 1013.8,   77.3, -999.0
02-09-2022, 00:14:04,     44,    0.0,   14.4,   0.00,   0.00, 1013.7,   77.3, -999.0
02-09-2022, 00:14:14,     44,    0.0,   14.4,   0.00,   0.00, 1013.7,   77.4, -999.0
02-09-2022, 00:14:23,     44,    0.0,   14.4,   0.00,   0.00, 1013.7,   77.4, -999.0
02-09-2022, 00:14:34,     44,    0.0,   14.4,   0.00,   0.00, 1013.7,   77.4, -999.0
02-09-2022, 00:14:44,     44,    0.0,   14.4,   0.00,   0.00, 1013.7,   77.4, -999.0
02-09-2022, 00:14:53,     44,    0.0,   14.4,   0.00,   0.00, 1013.7,   77.3, -999.0
02-09-2022, 00:15:03,     44,    0.0,   14.4,   0.00,   0.00, 1013.7,   77.4, -999.0
02-09-2022, 00:15:13,     44,    0.0,   14.4,   0.00,   0.00, 1013.7,   77.3, -999.0
02-09-2022, 00:15:23,     45,    0.0,   14.4,   0.00,   0.00, 1013.7,   77.3, -999.0
02-09-2022, 00:15:33,     44,    0.0,   14.4,   0.00,   0.00, 1013.7,   77.3, -999.0
02-09-2022, 00:15:43,     44,    0.0,   14.4,   0.00,   0.00, 1013.7,   77.2, -999.0
02-09-2022, 00:15:53,     44,    0.0,   14.5,   0.00,   0.00, 1013.7,   77.1, -999.0
02-09-2022, 00:16:03,     45,    0.0,   14.5,   0.00,   0.00, 1013.7,   77.2, -999.0
02-09-2022, 00:16:13,     44,    0.0,   14.5,   0.00,   0.00, 1013.7,   77.1, -999.0
02-09-2022, 00:16:23,     45,    0.0,   14.5,   0.00,   0.00, 1013.8,   77.2, -999.0
02-09-2022, 00:16:33,     44,    0.0,   14.4,   0.00,   0.00, 1013.7,   77.1, -999.0
02-09-2022, 00:16:43,     44,    0.0,   14.5,   0.00,   0.00, 1013.7,   77.1, -999.0
02-09-2022, 00:16:53,     44,    0.0,   14.4,   0.00,   0.00, 1013.7,   77.1, -999.0
02-09-2022, 00:17:02,     44,    0.0,   14.4,   0.00,   0.00, 1013.7,   76.9, -999.0
02-09-2022, 00:17:13,     44,    0.0,   14.5,   0.00,   0.00, 1013.7,   77.0, -999.0
02-09-2022, 00:17:23,     44,    0.0,   14.5,   0.00,   0.00, 1013.7,   77.0, -999.0
02-09-2022, 00:17:32,     44,    0.0,   14.5,   0.00,   0.00, 1013.7,   77.0, -999.0
02-09-2022, 00:17:43,     43,    0.0,   14.4,   0.00,   0.00, 1013.7,   77.0, -999.0
02-09-2022, 00:17:53,     45,    0.0,   14.4,   0.00,   0.00, 1013.7,   77.0, -999.0
02-09-2022, 00:18:02,     44,    0.0,   14.4,   0.00,   0.00, 1013.7,   77.0, -999.0
02-09-2022, 00:18:12,     44,    0.0,   14.4,   0.00,   0.00, 1013.7,   77.0, -999.0
02-09-2022, 00:18:22,     44,    0.0,   14.4,   0.00,   0.00, 1013.7,   77.0, -999.0
02-09-2022, 00:18:32,     44,    0.0,   14.4,   0.00,   0.00, 1013.7,   77.1, -999.0
02-09-2022, 00:18:42,     45,    0.0,   14.5,   0.00,   0.00, 1013.6,   76.9, -999.0
02-09-2022, 00:18:52,     44,    0.0,   14.5,   0.00,   0.00, 1013.6,   77.1, -999.0
02-09-2022, 00:19:02,     44,    0.0,   14.4,   0.00,   0.00, 1013.6,   77.1, -999.0
02-09-2022, 00:19:12,     44,    0.0,   14.4,   0.00,   0.00, 1013.7,   77.0, -999.0
02-09-2022, 00:19:22,     44,    0.0,   14.3,   0.00,   0.00, 1013.6,   77.0, -999.0
02-09-2022, 00:19:32,     44,    0.0,   14.4,   0.00,   0.00, 1013.6,   77.1, -999.0
02-09-2022, 00:19:42,     44,    0.0,   14.4,   0.00,   0.00, 1013.6,   77.1, -999.0
02-09-2022, 00:19:52,     44,    0.0,   14.4,   0.00,   0.00, 1013.6,   77.1, -999.0
02-09-2022, 00:20:02,     45,    0.0,   14.4,   0.00,   0.00, 1013.6,   77.2, -999.0
02-09-2022, 00:20:12,     44,    0.0,   14.4,   0.00,   0.00, 1013.6,   77.2, -999.0
02-09-2022, 00:20:22,     44,    0.0,   14.5,   0.00,   0.00, 1013.6,   77.4, -999.0
02-09-2022, 00:20:32,     44,    0.0,   14.5,   0.00,   0.00, 1013.6,   77.4, -999.0
02-09-2022, 00:20:41,     44,    0.0,   14.5,   0.00,   0.00, 1013.6,   77.3, -999.0
02-09-2022, 00:20:52,     44,    0.0,   14.5,   0.00,   0.00, 1013.6,   77.2, -999.0
02-09-2022, 00:21:01,     44,    0.0,   14.4,   0.00,   0.00, 1013.6,   77.0, -999.0
02-09-2022, 00:21:11,     44,    0.0,   14.3,   0.00,   0.00, 1013.6,   77.0, -999.0
02-09-2022, 00:21:21,     44,    0.0,   14.4,   0.00,   0.00, 1013.6,   77.0, -999.0
02-09-2022, 00:21:31,     44,    0.0,   14.4,   0.00,   0.00, 1013.6,   77.1, -999.0
02-09-2022, 00:21:41,     44,    0.0,   14.3,   0.00,   0.00, 1013.6,   77.1, -999.0
02-09-2022, 00:21:51,     44,    0.0,   14.3,   0.00,   0.00, 1013.6,   77.1, -999.0
02-09-2022, 00:22:01,     44,    0.0,   14.3,   0.00,   0.00, 1013.6,   77.2, -999.0
02-09-2022, 00:22:11,     45,    0.0,   14.2,   0.00,   0.00, 1013.6,   77.1, -999.0
02-09-2022, 00:22:21,     44,    0.0,   14.1,   0.00,   0.00, 1013.6,   77.3, -999.0
02-09-2022, 00:22:31,     44,    0.0,   14.3,   0.00,   0.00, 1013.6,   77.3, -999.0
02-09-2022, 00:22:41,     44,    0.0,   14.2,   0.00,   0.00, 1013.6,   77.3, -999.0
02-09-2022, 00:22:51,     44,    0.0,   14.3,   0.00,   0.00, 1013.5,   77.5, -999.0
02-09-2022, 00:23:01,     47,    0.0,   14.3,   0.00,   0.00, 1013.5,   77.4, -999.0
02-09-2022, 00:23:11,     44,    0.0,   14.3,   0.00,   0.00, 1013.5,   77.5, -999.0
02-09-2022, 00:23:21,     45,    0.9,   14.4,   0.00,   0.00, 1013.6,   77.7, -999.0
02-09-2022, 00:23:31,     44,    1.4,   14.4,   0.00,   0.00, 1013.7,   77.9, -999.0
02-09-2022, 00:23:40,     44,    0.4,   14.4,   0.00,   0.00, 1013.7,   77.8, -999.0
02-09-2022, 00:23:50,     44,    0.4,   14.4,   0.00,   0.00, 1013.6,   77.6, -999.0
02-09-2022, 00:24:01,     45,    1.4,   14.4,   0.00,   0.00, 1013.7,   77.8, -999.0
02-09-2022, 00:24:10,     45,    1.0,   14.3,   0.00,   0.00, 1013.7,   77.8, -999.0
02-09-2022, 00:24:20,     44,    0.0,   14.2,   0.00,   0.00, 1013.6,   77.5, -999.0
02-09-2022, 00:24:30,     44,    0.0,   14.3,   0.00,   0.00, 1013.6,   77.5, -999.0
02-09-2022, 00:24:40,     44,    0.0,   14.2,   0.00,   0.00, 1013.5,   77.6, -999.0
02-09-2022, 00:24:50,     45,    0.0,   14.2,   0.00,   0.00, 1013.6,   77.6, -999.0
02-09-2022, 00:25:00,     44,    0.0,   14.2,   0.00,   0.00, 1013.5,   77.5, -999.0
02-09-2022, 00:25:10,     44,    0.0,   14.2,   0.00,   0.00, 1013.5,   77.6, -999.0
02-09-2022, 00:25:20,     44,    0.0,   14.2,   0.00,   0.00, 1013.5,   77.6, -999.0
02-09-2022, 00:25:30,     45,    0.0,   14.2,   0.00,   0.00, 1013.5,   77.6, -999.0
02-09-2022, 00:25:40,     45,    0.8,   14.3,   0.00,   0.00, 1013.7,   78.2, -999.0
02-09-2022, 00:25:50,     45,    1.3,   14.3,   0.00,   0.00, 1013.6,   78.1, -999.0
02-09-2022, 00:26:00,     44,    0.0,   14.2,   0.00,   0.00, 1013.5,   77.7, -999.0
02-09-2022, 00:26:10,     44,    0.0,   14.2,   0.00,   0.00, 1013.5,   77.7, -999.0
02-09-2022, 00:26:19,     44,    0.0,   14.2,   0.00,   0.00, 1013.5,   77.8, -999.0
02-09-2022, 00:26:30,     44,    0.0,   14.2,   0.00,   0.00, 1013.5,   77.7, -999.0
02-09-2022, 00:26:40,     44,    0.0,   14.2,   0.00,   0.00, 1013.5,   77.6, -999.0
02-09-2022, 00:26:49,     44,    0.0,   14.1,   0.00,   0.00, 1013.5,   77.8, -999.0
02-09-2022, 00:26:59,     44,    0.0,   14.1,   0.00,   0.00, 1013.5,   77.7, -999.0
02-09-2022, 00:27:10,     45,    0.3,   14.2,   0.00,   0.00, 1013.5,   77.9, -999.0
02-09-2022, 00:27:19,     45,    1.4,   14.3,   0.00,   0.00, 1013.6,   78.2, -999.0
02-09-2022, 00:27:29,     45,    0.5,   14.3,   0.00,   0.00, 1013.6,   78.1, -999.0
02-09-2022, 00:27:39,     44,    0.0,   14.0,   0.00,   0.00, 1013.5,   77.9, -999.0
02-09-2022, 00:27:49,     44,    0.0,   14.1,   0.00,   0.00, 1013.5,   77.9, -999.0
02-09-2022, 00:27:59,     44,    0.0,   14.1,   0.00,   0.00, 1013.5,   78.0, -999.0
02-09-2022, 00:28:09,     44,    0.0,   14.2,   0.00,   0.00, 1013.5,   77.9, -999.0
02-09-2022, 00:28:19,     44,    0.1,   14.2,   0.00,   0.00, 1013.6,   78.1, -999.0
02-09-2022, 00:28:29,     44,    0.0,   14.1,   0.00,   0.00, 1013.5,   77.9, -999.0
02-09-2022, 00:28:39,     44,    0.0,   14.2,   0.00,   0.00, 1013.5,   77.9, -999.0
02-09-2022, 00:28:49,     44,    0.0,   14.2,   0.00,   0.00, 1013.5,   78.0, -999.0
02-09-2022, 00:28:59,     44,    0.0,   14.1,   0.00,   0.00, 1013.5,   78.0, -999.0
02-09-2022, 00:29:09,     44,    0.0,   14.1,   0.00,   0.00, 1013.5,   78.0, -999.0
02-09-2022, 00:29:19,     44,    0.0,   14.2,   0.00,   0.00, 1013.5,   77.9, -999.0
02-09-2022, 00:29:28,     44,    0.0,   14.2,   0.00,   0.00, 1013.5,   78.1, -999.0
02-09-2022, 00:29:39,     44,    0.0,   14.2,   0.00,   0.00, 1013.5,   77.8, -999.0
02-09-2022, 00:29:49,     46,    0.0,   14.0,   0.00,   0.00, 1013.4,   77.8, -999.0
02-09-2022, 00:29:59,     44,    0.0,   14.1,   0.00,   0.00, 1013.5,   77.9, -999.0
02-09-2022, 00:30:08,     44,    0.0,   14.1,   0.00,   0.00, 1013.5,   77.9, -999.0
02-09-2022, 00:30:18,     45,    0.0,   14.1,   0.00,   0.00, 1013.5,   77.9, -999.0
02-09-2022, 00:30:29,     44,    0.0,   14.1,   0.00,   0.00, 1013.5,   78.0, -999.0
02-09-2022, 00:30:38,     44,    0.0,   14.1,   0.00,   0.00, 1013.5,   78.0, -999.0
02-09-2022, 00:30:48,     44,    0.0,   14.1,   0.00,   0.00, 1013.5,   78.1, -999.0
02-09-2022, 00:30:58,     44,    0.0,   14.1,   0.00,   0.00, 1013.5,   78.0, -999.0
02-09-2022, 00:31:08,     44,    0.0,   14.1,   0.00,   0.00, 1013.5,   78.2, -999.0
02-09-2022, 00:31:18,     45,    0.5,   14.2,   0.00,   0.00, 1013.6,   78.3, -999.0
02-09-2022, 00:31:28,     45,    0.8,   14.3,   0.00,   0.00, 1013.6,   78.4, -999.0
02-09-2022, 00:31:38,     44,    0.1,   14.2,   0.00,   0.00, 1013.6,   78.2, -999.0
02-09-2022, 00:31:48,     44,    0.0,   14.1,   0.00,   0.00, 1013.5,   78.0, -999.0
02-09-2022, 00:31:58,     44,    0.0,   14.2,   0.00,   0.00, 1013.5,   78.1, -999.0
02-09-2022, 00:32:08,     44,    0.0,   14.2,   0.00,   0.00, 1013.5,   78.0, -999.0
02-09-2022, 00:32:18,     44,    0.0,   14.2,   0.00,   0.00, 1013.5,   78.0, -999.0
02-09-2022, 00:32:28,     45,    0.1,   14.2,   0.00,   0.00, 1013.6,   78.1, -999.0
02-09-2022, 00:32:38,     44,    0.1,   14.2,   0.00,   0.00, 1013.5,   78.1, -999.0
02-09-2022, 00:32:47,     44,    0.0,   14.1,   0.00,   0.00, 1013.5,   78.0, -999.0
02-09-2022, 00:32:58,     44,    0.0,   14.1,   0.00,   0.00, 1013.5,   77.9, -999.0
02-09-2022, 00:33:08,     44,    0.0,   14.1,   0.00,   0.00, 1013.5,   77.9, -999.0
02-09-2022, 00:33:17,     44,    0.0,   14.1,   0.00,   0.00, 1013.5,   78.0, -999.0
02-09-2022, 00:33:27,     44,    0.0,   14.1,   0.00,   0.00, 1013.5,   77.9, -999.0
02-09-2022, 00:33:37,     44,    0.0,   14.1,   0.00,   0.00, 1013.5,   77.9, -999.0
02-09-2022, 00:33:47,     44,    0.0,   14.1,   0.00,   0.00, 1013.5,   78.0, -999.0
02-09-2022, 00:33:57,     44,    0.0,   14.1,   0.00,   0.00, 1013.5,   78.0, -999.0
02-09-2022, 00:34:07,     44,    0.0,   14.1,   0.00,   0.00, 1013.5,   78.0, -999.0
02-09-2022, 00:34:17,     44,    0.0,   14.1,   0.00,   0.00, 1013.5,   78.0, -999.0
02-09-2022, 00:34:27,     45,    0.0,   14.1,   0.00,   0.00, 1013.5,   78.0, -999.0
02-09-2022, 00:34:37,     44,    0.0,   14.1,   0.00,   0.00, 1013.5,   78.0, -999.0
02-09-2022, 00:34:47,     44,    0.0,   14.1,   0.00,   0.00, 1013.5,   78.0, -999.0
02-09-2022, 00:34:57,     44,    0.0,   14.1,   0.00,   0.00, 1013.5,   78.0, -999.0
02-09-2022, 00:35:07,     44,    0.0,   14.1,   0.00,   0.00, 1013.5,   78.1, -999.0
02-09-2022, 00:35:17,     44,    0.0,   14.1,   0.00,   0.00, 1013.5,   78.0, -999.0
02-09-2022, 00:35:27,     44,    0.0,   14.1,   0.00,   0.00, 1013.5,   78.1, -999.0
02-09-2022, 00:35:37,     45,    0.0,   14.1,   0.00,   0.00, 1013.5,   78.1, -999.0
02-09-2022, 00:35:47,     44,    0.0,   14.1,   0.00,   0.00, 1013.5,   78.1, -999.0
02-09-2022, 00:35:56,     44,    0.0,   14.1,   0.00,   0.00, 1013.5,   78.2, -999.0
02-09-2022, 00:36:07,     44,    0.0,   14.1,   0.00,   0.00, 1013.5,   78.0, -999.0
02-09-2022, 00:36:16,     44,    0.0,   14.1,   0.00,   0.00, 1013.5,   78.1, -999.0
02-09-2022, 00:36:26,     44,    0.0,   14.1,   0.00,   0.00, 1013.5,   78.1, -999.0
02-09-2022, 00:36:36,     45,    0.0,   14.1,   0.00,   0.00, 1013.5,   78.1, -999.0
02-09-2022, 00:36:46,     44,    0.0,   14.2,   0.00,   0.00, 1013.5,   78.0, -999.0
02-09-2022, 00:36:56,     44,    0.0,   14.1,   0.00,   0.00, 1013.5,   78.0, -999.0
02-09-2022, 00:37:06,     44,    0.0,   14.1,   0.00,   0.00, 1013.5,   78.0, -999.0
02-09-2022, 00:37:16,     44,    0.0,   14.1,   0.00,   0.00, 1013.5,   78.0, -999.0
02-09-2022, 00:37:26,     44,    0.0,   14.1,   0.00,   0.00, 1013.5,   78.1, -999.0
02-09-2022, 00:37:36,     44,    0.0,   14.1,   0.00,   0.00, 1013.5,   78.0, -999.0
02-09-2022, 00:37:46,     44,    0.0,   14.1,   0.00,   0.00, 1013.5,   78.0, -999.0
02-09-2022, 00:37:56,     44,    0.0,   14.1,   0.00,   0.00, 1013.5,   78.0, -999.0
02-09-2022, 00:38:06,     44,    0.0,   14.0,   0.00,   0.00, 1013.5,   78.0, -999.0
02-09-2022, 00:38:16,     45,    0.0,   14.0,   0.00,   0.00, 1013.4,   78.0, -999.0
02-09-2022, 00:38:28,     44,    0.0,   14.1,   0.00,   0.00, 1013.5,   78.2, -999.0
02-09-2022, 00:38:36,     44,    0.0,   14.1,   0.00,   0.00, 1013.4,   78.2, -999.0
02-09-2022, 00:38:46,     44,    0.0,   14.1,   0.00,   0.00, 1013.5,   78.1, -999.0
02-09-2022, 00:38:55,     44,    0.0,   14.0,   0.00,   0.00, 1013.5,   78.2, -999.0
02-09-2022, 00:39:05,     44,    0.0,   14.1,   0.00,   0.00, 1013.5,   78.2, -999.0
02-09-2022, 00:39:16,     44,    0.0,   14.1,   0.00,   0.00, 1013.5,   78.2, -999.0
02-09-2022, 00:39:25,     45,    0.7,   14.1,   0.00,   0.00, 1013.5,   78.4, -999.0
02-09-2022, 00:39:35,     44,    0.3,   14.1,   0.00,   0.00, 1013.5,   78.4, -999.0
02-09-2022, 00:39:46,     44,    0.0,   14.1,   0.00,   0.00, 1013.5,   78.2, -999.0
02-09-2022, 00:39:55,     44,    0.0,   14.1,   0.00,   0.00, 1013.5,   78.2, -999.0
02-09-2022, 00:40:05,     44,    0.0,   14.1,   0.00,   0.00, 1013.5,   78.3, -999.0
02-09-2022, 00:40:15,     44,    0.0,   14.1,   0.00,   0.00, 1013.5,   78.2, -999.0
02-09-2022, 00:40:25,     44,    0.0,   14.1,   0.00,   0.00, 1013.4,   78.2, -999.0
02-09-2022, 00:40:35,     44,    0.0,   14.1,   0.00,   0.00, 1013.4,   78.2, -999.0
02-09-2022, 00:40:45,     44,    0.0,   14.1,   0.00,   0.00, 1013.5,   78.2, -999.0
02-09-2022, 00:40:55,     46,    0.0,   14.1,   0.00,   0.00, 1013.5,   78.2, -999.0
02-09-2022, 00:41:05,     45,    0.0,   14.0,   0.00,   0.00, 1013.5,   78.3, -999.0
02-09-2022, 00:41:15,     44,    0.0,   14.0,   0.00,   0.00, 1013.4,   78.2, -999.0
02-09-2022, 00:41:25,     44,    0.0,   14.1,   0.00,   0.00, 1013.4,   78.1, -999.0
02-09-2022, 00:41:34,     44,    0.0,   14.1,   0.00,   0.00, 1013.4,   78.3, -999.0
02-09-2022, 00:41:45,     44,    0.0,   14.1,   0.00,   0.00, 1013.4,   78.2, -999.0
02-09-2022, 00:41:55,     44,    0.0,   14.2,   0.00,   0.00, 1013.4,   78.3, -999.0
02-09-2022, 00:42:04,     44,    0.0,   14.1,   0.00,   0.00, 1013.4,   78.1, -999.0
02-09-2022, 00:42:15,     44,    0.0,   14.1,   0.00,   0.00, 1013.4,   78.0, -999.0
02-09-2022, 00:42:25,     44,    0.0,   14.1,   0.00,   0.00, 1013.4,   78.1, -999.0
02-09-2022, 00:42:34,     44,    0.0,   14.1,   0.00,   0.00, 1013.4,   78.1, -999.0
02-09-2022, 00:42:44,     44,    0.0,   14.1,   0.00,   0.00, 1013.4,   78.1, -999.0
02-09-2022, 00:42:55,     44,    0.0,   14.0,   0.00,   0.00, 1013.4,   78.1, -999.0
02-09-2022, 00:43:04,     44,    0.0,   14.1,   0.00,   0.00, 1013.4,   78.0, -999.0
02-09-2022, 00:43:14,     44,    0.0,   14.1,   0.00,   0.00, 1013.4,   78.1, -999.0
02-09-2022, 00:43:24,     44,    0.0,   14.0,   0.00,   0.00, 1013.4,   78.1, -999.0
02-09-2022, 00:43:34,     44,    0.0,   14.1,   0.00,   0.00, 1013.4,   78.0, -999.0
02-09-2022, 00:43:44,     44,    0.0,   14.1,   0.00,   0.00, 1013.4,   78.1, -999.0
02-09-2022, 00:43:54,     44,    0.0,   14.1,   0.00,   0.00, 1013.4,   78.1, -999.0
02-09-2022, 00:44:04,     44,    0.0,   14.1,   0.00,   0.00, 1013.4,   78.1, -999.0
02-09-2022, 00:44:14,     44,    0.0,   14.1,   0.00,   0.00, 1013.4,   78.1, -999.0
02-09-2022, 00:44:24,     44,    0.0,   14.2,   0.00,   0.00, 1013.4,   78.2, -999.0
02-09-2022, 00:44:34,     44,    0.0,   14.1,   0.00,   0.00, 1013.4,   78.1, -999.0
02-09-2022, 00:44:43,     44,    0.0,   14.0,   0.00,   0.00, 1013.4,   78.1, -999.0
02-09-2022, 00:44:54,     44,    0.0,   14.0,   0.00,   0.00, 1013.4,   78.2, -999.0
02-09-2022, 00:45:04,     44,    0.0,   14.0,   0.00,   0.00, 1013.4,   78.3, -999.0
02-09-2022, 00:45:13,     45,    0.0,   14.0,   0.00,   0.00, 1013.4,   78.2, -999.0
02-09-2022, 00:45:25,     44,    0.0,   14.1,   0.00,   0.00, 1013.4,   78.2, -999.0
02-09-2022, 00:45:33,     44,    0.0,   14.1,   0.00,   0.00, 1013.3,   78.3, -999.0
02-09-2022, 00:45:43,     44,    0.0,   14.1,   0.00,   0.00, 1013.4,   78.3, -999.0
02-09-2022, 00:45:53,     44,    0.0,   14.1,   0.00,   0.00, 1013.3,   78.3, -999.0
02-09-2022, 00:46:03,     44,    0.0,   14.0,   0.00,   0.00, 1013.4,   78.3, -999.0
02-09-2022, 00:46:13,     45,    0.0,   14.1,   0.00,   0.00, 1013.4,   78.3, -999.0
02-09-2022, 00:46:23,     44,    0.0,   14.1,   0.00,   0.00, 1013.4,   78.3, -999.0
02-09-2022, 00:46:33,     44,    0.0,   14.0,   0.00,   0.00, 1013.4,   78.2, -999.0
02-09-2022, 00:46:43,     44,    0.0,   14.1,   0.00,   0.00, 1013.4,   78.2, -999.0